Location: Nairn
(57.5833°N, 3.8667°W)
Time: 23:40:53
(UTC+00:00)

N. Korean satellite - Pass Details

Date: 01 November 2020
Orbit: 453 x 503 km, 97.2° (Epoch: 04 December)

Event Time Altitude Azimuth Distance (km) Brightness Sun altitude
Rises 04:44:05 0° 28° (NNE) 2,486 10.7 -22.3°
Reaches altitude 10° 04:46:58 10° 55° (NE) 1,603 10.1 -21.9°
Maximum altitude 04:48:48 14° 87° (E) 1,383 9.9 -21.7°
Drops below altitude 10° 04:50:38 10° 120° (ESE) 1,596 9.9 -21.4°
Sets 04:53:29 0° 147° (SSE) 2,466 10.5 -21.0°
